COSMOS 1275 DEB, 42181

Orbit data source: Space-Track

COSMOS 1275 DEB, 42181 is space debris in LEO originally from a launch on Thu, 04 Jun 1981 UTC launched from the Plesetsk Missile And Space Complex (PKMTR). Debris objects in space refer to the collection of defunct objects orbiting the Earth. Examples of debris include non-operational satellites, rocket bodies, and fragments generated from explosions, collisions, or faulty payload assembly.

Loading next visibility...
COSMOS 1275 DEB details
Identifier
42181, 1981-053SV
Orbit
LEO
Last TLE update14 hours ago
Origin
Flag of CISGUKOS (CIS)
ManufacturerUnknown
MissionSpacecraft
Bus & MotorUnknown
MassUnknown
Launch date (UTC)
1981-06-04 (44 years ago)
Launch vehicleUnknown
Launch site
Plesetsk Missile And Space Complex (PKMTR)
Object type
Payload
Rocket body
Debris
Shape & HBRUnknown
Radar Cross SectionSmall (<0.1 m²)

Expand to show TLE details & history

TLE from 14 hours ago
0 COSMOS 1275 DEB
1 42181U 81053SV  24361.06049038  .00004398  00000-0  33173-2 0  9992
2 42181  82.8997 124.6881 0078468 210.6981 148.9584 13.92534576  3996
Epoch: 2024-12-26T01:27Z
Definitive object data (Epoch: 2024-12-26T01:27:06.368Z)
Latitude0.00002°
Longitude7.86626°
Altitude971.877 km
Speed7.341 km/s
True Right ascension08h 18m 45s
True Declination0° 00' 00"
Sunlit
Object was in full shadow at TLE epoch
Visualization TLE readout
Latitude-37.9512°
Longitude1.88512°
Altitude956.07 km
Speed7.361 km/s
Apparent Right ascension05h 26m 55s
Apparent Declination-46° 41' 04"
Sunlit
Object is in daylight
Visualization observer readout
Local Sidereal Time14:25:43
Azimuth243.003° WSW
Elevation-56.819°
Doppler factor1
Orbital elements
Apogee altitude974.131 km
Perigee altitude859.645 km
Semi-major axis7,295.025 km
Eccentricity0.0078468
Inclination82.8997°
RAAN124.6881°
Arg. of periapsis210.6981°
True anomaly149.4182°
Mean anomaly148.9584°
Eccentric anomaly149.18868°
Mean motion3.4834 °/min
BSTAR0.0033173
Orbital period103.35 mins
Loading maneuver chart data...
Loading historical data...
Loading historical data...
Loading historical data...
Loading historical data...
Loading historical data...
Loading historical data...
Loading historical data...

COSMOS 1275 DEB Visibility forecast

Observer location: undefined°, undefined

Span
Click to sort rows by Start time (UTC) header in descending order
Start Az.
Max El. time (UTC)
Max El. Az.
Max El.
End time (UTC)
End Az.
9 mins2024-12-26 19:16:46.520Z18.667° NNE2024-12-26 19:21:46.520Z76.791° E22.347°2024-12-26 19:25:46.520Z123.231° SE
9 mins2024-12-26 21:01:46.520Z333.493° NNW2024-12-26 21:05:46.520Z271.987° WNW34.699°2024-12-26 21:10:46.520Z201.719° SSW
10 mins2024-12-27 08:36:46.520Z158.083° S2024-12-27 08:40:46.520Z102.337° ESE36.98°2024-12-27 08:46:46.520Z19.091° NNE
8 mins2024-12-27 10:21:46.520Z243.074° WSW2024-12-27 10:25:46.520Z291.024° WNW22.51°2024-12-27 10:29:46.520Z336.328° NNW
|